Home > Weather > Toccoa > Past weeks

Flag for U.S.A. Weather for the Past 2 Weeks in Toccoa, Georgia, U.S.A.

Now
34 °F

Clear.


Feels Like: 25 °F
Forecast: 27 / 40 °F
Wind: 14 mph from Northwest

Location: Clemson-Oconee County Airport

Current Time: Feb 13, 2016 at 6:38:08 AM

Latest Report: Feb 13, 2016 at 5:54 AM


Visibility: 10 mi

Pressure: 30.17 "Hg

Humidity: 37%

Dew point: 10 °F

Location of ToccoaLocation

Historic Weather in Toccoa — Graph

°F

Toccoa Temperature Yesterday

Maximum temperature yesterday: 54 °F (at 3:54 PM)
Minimum temperature yesterday: 35 °F (at 2:54 AM)
Average temperature yesterday: 42 °F

High & Low Weather Summary for the Past Weeks

 TemperatureHumidityPressure
High68 °F (Feb 1, 3:54 PM)94% (Feb 3, 6:54 AM)30.42 "Hg (Feb 3, 6:54 AM)
Low24 °F (Feb 10, 6:54 AM)17% (Jan 29, 2:54 PM)29.67 "Hg (Feb 8, 2:54 PM)
Average46 °F55%30.04 "Hg
* Reported Jan 29 4:54 AM — Feb 13 4:54 AM, Toccoa, Weather by CustomWeather, © 2016

Note: Actual official high and low records may vary slightly from our data, if they occured in-between our weather recording intervals... More about our weather records

Advertising

Toccoa Weather History for the Previous 24 Hours

 ConditionsComfort  
Time TempWeatherWind HumidityBarometerVisibility
4:54 AM
Sat, Feb 13
34 °FClear.9 mph40%30.14 "Hg10 mi
3:54 AM36 °FClear.12 mph42%30.12 "Hg10 mi
2:54 AM37 °FClear.9 mph48%30.11 "Hg10 mi
1:54 AM39 °FClear.12 mph46%30.10 "Hg10 mi
12:54 AM38 °FClear.9 mph55%30.10 "Hg10 mi
11:54 PM
Fri, Feb 12
41 °FClear.8 mph53%30.11 "Hg10 mi
10:54 PM42 °FClear.7 mph53%30.11 "Hg10 mi
9:54 PM44 °FClear.9 mph51%30.10 "Hg10 mi
8:54 PM45 °FClear.12 mph49%30.09 "Hg10 mi
7:54 PM47 °FClear.17 mph46%30.07 "Hg10 mi
6:54 PM49 °FClear.16 mph46%30.06 "Hg10 mi
5:54 PM51 °FSunny.14 mph42%30.04 "Hg10 mi
4:54 PM53 °FOvercast.15 mph43%30.02 "Hg10 mi
3:54 PM54 °FOvercast.10 mph40%30.01 "Hg10 mi
2:54 PM50 °FPassing clouds.5 mph48%30.02 "Hg10 mi
1:54 PM47 °FSunny.3 mph54%30.05 "Hg10 mi
12:54 PM43 °FScattered clouds.3 mph58%30.10 "Hg10 mi
11:54 AM41 °FPartly sunny.7 mph62%30.14 "Hg10 mi
10:54 AM37 °FOvercast.9 mph60%30.19 "Hg10 mi
9:54 AM37 °FOvercast.8 mph48%30.18 "Hg10 mi
8:54 AM37 °FOvercast.8 mph46%30.18 "Hg10 mi
7:54 AM37 °FMostly cloudy.No wind48%30.18 "Hg10 mi
6:54 AM36 °FPassing clouds.5 mph50%30.18 "Hg10 mi
Weather by CustomWeather, © 2016

See weather overviewHow to use our weather pages